| time (UTC) | temp F | wind direction | speed knots | gust knots | rain 1hr in | rain 24hr in | rain mn in | humidity % | barometer mb |
| 20260506005622 | 47 | 179 | 2.6 | 7.0 | 0.00 | 0.00 | 0.00 | 47 | 1013.3 |
| 20260506005118 | 47 | 147 | 0.9 | 5.2 | 0.00 | 0.00 | 0.00 | 47 | 1013.3 |
| 20260506004615 | 47 | 253 | 3.5 | 7.0 | 0.00 | 0.00 | 0.00 | 46 | 1013.2 |
| 20260506004112 | 47 | 173 | 0.9 | 6.1 | 0.00 | 0.00 | 0.00 | 46 | 1013.2 |
| 20260506003609 | 47 | 186 | 2.6 | 7.8 | 0.00 | 0.00 | 0.00 | 45 | 1013.1 |
| 20260506003105 | 47 | 212 | 1.7 | 4.3 | 0.00 | 0.00 | 0.00 | 46 | 1013.2 |
| 20260506002600 | 47 | 246 | 4.3 | 7.0 | 0.00 | 0.00 | 0.00 | 45 | 1013.1 |
| 20260506002057 | 47 | 231 | 3.5 | 7.8 | 0.00 | 0.00 | 0.00 | 46 | 1012.8 |
| 20260506001553 | 47 | 226 | 2.6 | 5.2 | 0.00 | 0.00 | 0.00 | 44 | 1012.9 |
| 20260506001050 | 47 | 227 | 2.6 | 7.0 | 0.00 | 0.00 | 0.00 | 45 | 1013.0 |
| 20260506000548 | 47 | 249 | 2.6 | 12.2 | 0.00 | 0.00 | 0.00 | 44 | 1012.8 |
| 20260506000045 | 47 | 231 | 1.7 | 5.2 | 0.00 | 0.00 | 0.00 | 46 | 1013.0 |
| 20260505235543 | 47 | 243 | 0.0 | 4.3 | 0.00 | 0.00 | 0.00 | 45 | 1012.9 |
| 20260505235040 | 47 | 258 | 3.5 | 7.8 | 0.00 | 0.00 | 0.00 | 45 | 1012.8 |
| 20260505234537 | 48 | 247 | 3.5 | 7.0 | 0.00 | 0.00 | 0.00 | 44 | 1012.6 |
| 20260505234033 | 48 | 228 | 3.5 | 6.1 | 0.00 | 0.00 | 0.00 | 44 | 1012.9 |
| 20260505233531 | 47 | 243 | 1.7 | 1.7 | 0.00 | 0.00 | 0.00 | 45 | 1012.9 |
| 20260505233028 | 48 | 252 | 3.5 | 4.3 | 0.00 | 0.00 | 0.00 | 45 | 1012.7 |
| 20260505232526 | 48 | 217 | 3.5 | 4.3 | 0.00 | 0.00 | 0.00 | 44 | 1012.8 |
| 20260505232023 | 48 | 245 | 1.7 | 6.1 | 0.00 | 0.00 | 0.00 | 44 | 1012.8 |
| 20260505231520 | 48 | 255 | 2.6 | 4.3 | 0.00 | 0.00 | 0.00 | 44 | 1012.7 |
| 20260505231019 | 48 | 191 | 0.9 | 9.6 | 0.00 | 0.00 | 0.00 | 45 | 1012.8 |
| 20260505230516 | 48 | 236 | 3.5 | 6.1 | 0.00 | 0.00 | 0.00 | 44 | 1012.8 |
| 20260505230012 | 48 | 219 | 1.7 | 7.8 | 0.00 | 0.00 | 0.00 | 44 | 1012.6 |
| 20260505225509 | 48 | 142 | 1.7 | 5.2 | 0.00 | 0.00 | 0.00 | 44 | 1012.8 |
| 20260505225005 | 48 | 232 | 2.6 | 6.1 | 0.00 | 0.00 | 0.00 | 45 | 1012.7 |
| 20260505224502 | 48 | 146 | 0.0 | 1.7 | 0.00 | 0.00 | 0.00 | 46 | 1012.8 |
| 20260505223959 | 48 | 185 | 2.6 | 6.1 | 0.00 | 0.00 | 0.00 | 44 | 1012.5 |
| 20260505223456 | 48 | 253 | 4.3 | 7.0 | 0.00 | 0.00 | 0.00 | 44 | 1012.8 |
| 20260505222952 | 48 | 183 | 6.1 | 9.6 | 0.00 | 0.00 | 0.00 | 44 | 1012.6 |
| 20260505222449 | 49 | 211 | 6.1 | 9.6 | 0.00 | 0.00 | 0.00 | 43 | 1012.7 |
| 20260505221944 | 49 | 271 | 2.6 | 7.0 | 0.00 | 0.00 | 0.00 | 43 | 1012.7 |
| 20260505221442 | 48 | 257 | 5.2 | 7.0 | 0.00 | 0.00 | 0.00 | 43 | 1012.7 |
| 20260505220939 | 48 | 129 | 0.9 | 7.8 | 0.00 | 0.00 | 0.00 | 44 | 1012.7 |
| 20260505220436 | 48 | 211 | 7.8 | 8.7 | 0.00 | 0.00 | 0.00 | 44 | 1012.7 |
| 20260505215934 | 48 | 181 | 0.9 | 7.8 | 0.00 | 0.00 | 0.00 | 44 | 1012.8 |
| 20260505215432 | 48 | 162 | 5.2 | 7.8 | 0.00 | 0.00 | 0.00 | 44 | 1012.8 |
| 20260505214929 | 48 | 191 | 2.6 | 5.2 | 0.00 | 0.00 | 0.00 | 44 | 1012.7 |
| 20260505214427 | 48 | 158 | 5.2 | 7.0 | 0.00 | 0.00 | 0.00 | 44 | 1012.8 |
| 20260505213924 | 49 | 183 | 4.3 | 13.0 | 0.00 | 0.00 | 0.00 | 44 | 1012.9 |
| 20260505213421 | 48 | 233 | 2.6 | 11.3 | 0.00 | 0.00 | 0.00 | 44 | 1012.8 |
| 20260505212917 | 49 | 221 | 3.5 | 9.6 | 0.00 | 0.00 | 0.00 | 43 | 1012.8 |
| 20260505212414 | 48 | 183 | 7.0 | 8.7 | 0.00 | 0.00 | 0.00 | 43 | 1012.9 |
| 20260505211911 | 49 | 201 | 1.7 | 6.1 | 0.00 | 0.00 | 0.00 | 44 | 1012.9 |
| 20260505211409 | 48 | 201 | 3.5 | 6.1 | 0.00 | 0.00 | 0.00 | 43 | 1012.7 |
| 20260505210904 | 49 | 239 | 2.6 | 6.1 | 0.00 | 0.00 | 0.00 | 44 | 1012.9 |
| 20260505210402 | 48 | 268 | 2.6 | 7.8 | 0.00 | 0.00 | 0.00 | 44 | 1012.9 |
| 20260505205859 | 48 | 249 | 1.7 | 2.6 | 0.00 | 0.00 | 0.00 | 44 | 1013.0 |
| 20260505205357 | 49 | 249 | 2.6 | 6.1 | 0.00 | 0.00 | 0.00 | 43 | 1013.0 |
| 20260505204853 | 48 | 284 | 2.6 | 4.3 | 0.00 | 0.00 | 0.00 | 44 | 1012.8 |
| 20260505204351 | 49 | 214 | 4.3 | 8.7 | 0.00 | 0.00 | 0.00 | 42 | 1013.0 |
| 20260505203848 | 49 | 239 | 7.8 | 8.7 | 0.00 | 0.00 | 0.00 | 41 | 1012.8 |
| 20260505203345 | 48 | 206 | 5.2 | 12.2 | 0.00 | 0.00 | 0.00 | 43 | 1012.8 |
| 20260505202841 | 48 | 239 | 2.6 | 2.6 | 0.00 | 0.00 | 0.00 | 44 | 1013.0 |
| 20260505202337 | 48 | 185 | 4.3 | 11.3 | 0.00 | 0.00 | 0.00 | 43 | 1012.9 |
| 20260505201834 | 49 | 218 | 6.1 | 13.0 | 0.00 | 0.00 | 0.00 | 42 | 1012.8 |
| 20260505201332 | 48 | 193 | 1.7 | 7.8 | 0.00 | 0.00 | 0.00 | 43 | 1013.0 |
| 20260505200830 | 48 | 154 | 4.3 | 7.0 | 0.00 | 0.00 | 0.00 | 43 | 1013.0 |
| 20260505200326 | 48 | 157 | 0.9 | 6.1 | 0.00 | 0.00 | 0.00 | 44 | 1013.1 |
| 20260505195822 | 48 | 226 | 4.3 | 11.3 | 0.00 | 0.00 | 0.00 | 42 | 1012.9 |
| 20260505195319 | 48 | 160 | 2.6 | 8.7 | 0.00 | 0.00 | 0.00 | 43 | 1012.9 |
| 20260505194816 | 48 | 152 | 2.6 | 11.3 | 0.00 | 0.00 | 0.00 | 43 | 1012.9 |
| 20260505194314 | 48 | 212 | 6.1 | 12.2 | 0.00 | 0.00 | 0.00 | 42 | 1013.1 |
| 20260505193808 | 49 | 217 | 7.0 | 8.7 | 0.00 | 0.00 | 0.00 | 42 | 1012.9 |
| 20260505193307 | 48 | 208 | 5.2 | 11.3 | 0.00 | 0.00 | 0.00 | 43 | 1012.9 |
| 20260505192805 | 48 | 167 | 3.5 | 8.7 | 0.00 | 0.00 | 0.00 | 43 | 1012.9 |
| 20260505192305 | 48 | 239 | 5.2 | 13.0 | 0.00 | 0.00 | 0.00 | 43 | 1013.1 |
| 20260505191800 | 48 | 215 | 3.5 | 7.8 | 0.00 | 0.00 | 0.00 | 43 | 1013.1 |
| 20260505191258 | 48 | 231 | 4.3 | 8.7 | 0.00 | 0.00 | 0.00 | 42 | 1013.0 |
| 20260505190754 | 48 | 235 | 4.3 | 7.8 | 0.00 | 0.00 | 0.00 | 42 | 1013.0 |
| 20260505190249 | 47 | 255 | 4.3 | 9.6 | 0.00 | 0.00 | 0.00 | 42 | 1013.1 |
| 20260505185746 | 48 | 247 | 7.0 | 9.6 | 0.00 | 0.00 | 0.00 | 42 | 1013.3 |
| 20260505185243 | 48 | 202 | 3.5 | 7.8 | 0.00 | 0.00 | 0.00 | 42 | 1013.1 |
| 20260505184738 | 48 | 191 | 2.6 | 8.7 | 0.00 | 0.00 | 0.00 | 43 | 1013.1 |
| 20260505184236 | 48 | 182 | 6.1 | 11.3 | 0.00 | 0.00 | 0.00 | 44 | 1013.1 |
| 20260505183733 | 47 | 165 | 3.5 | 12.2 | 0.00 | 0.00 | 0.00 | 43 | 1013.1 |
| 20260505183230 | 47 | 231 | 3.5 | 7.8 | 0.00 | 0.00 | 0.00 | 43 | 1013.1 |
| 20260505182726 | 47 | 257 | 7.8 | 12.2 | 0.00 | 0.00 | 0.00 | 43 | 1013.1 |
| 20260505182224 | 47 | 253 | 5.2 | 8.7 | 0.00 | 0.00 | 0.00 | 43 | 1013.0 |
| 20260505181720 | 47 | 221 | 3.5 | 8.7 | 0.00 | 0.00 | 0.00 | 44 | 1013.1 |
| 20260505181217 | 49 | 207 | 2.6 | 5.2 | 0.00 | 0.00 | 0.00 | 42 | 1013.0 |
| 20260505180714 | 48 | 219 | 4.3 | 7.8 | 0.00 | 0.00 | 0.00 | 43 | 1013.2 |
| 20260505180211 | 48 | 222 | 3.5 | 6.1 | 0.00 | 0.00 | 0.00 | 42 | 1013.1 |
| 20260505175707 | 47 | 251 | 4.3 | 12.2 | 0.00 | 0.00 | 0.00 | 43 | 1013.0 |
| 20260505175203 | 47 | 179 | 2.6 | 6.1 | 0.00 | 0.00 | 0.00 | 42 | 1013.1 |
| 20260505174700 | 46 | 204 | 3.5 | 7.8 | 0.00 | 0.00 | 0.00 | 44 | 1012.9 |
| 20260505174156 | 47 | 162 | 4.3 | 9.6 | 0.00 | 0.00 | 0.00 | 43 | 1013.1 |
| 20260505173653 | 47 | 229 | 3.5 | 7.8 | 0.00 | 0.00 | 0.00 | 42 | 1013.0 |
| 20260505173150 | 47 | 195 | 3.5 | 5.2 | 0.00 | 0.00 | 0.00 | 43 | 1013.2 |
| 20260505172647 | 47 | 95 | 0.9 | 4.3 | 0.00 | 0.00 | 0.00 | 46 | 1013.4 |
| 20260505172144 | 46 | 268 | 3.5 | 6.1 | 0.00 | 0.00 | 0.00 | 44 | 1013.3 |
| 20260505171643 | 48 | 217 | 4.3 | 11.3 | 0.00 | 0.00 | 0.00 | 42 | 1013.2 |
| 20260505171141 | 47 | 294 | 2.6 | 5.2 | 0.00 | 0.00 | 0.00 | 41 | 1013.3 |
| 20260505170638 | 47 | 129 | 5.2 | 9.6 | 0.00 | 0.00 | 0.00 | 42 | 1013.3 |
| 20260505170134 | 47 | 238 | 9.6 | 13.0 | 0.00 | 0.00 | 0.00 | 41 | 1013.5 |
| 20260505165629 | 47 | 216 | 7.0 | 7.8 | 0.00 | 0.00 | 0.00 | 42 | 1013.4 |
| 20260505165125 | 47 | 197 | 3.5 | 12.2 | 0.00 | 0.00 | 0.00 | 42 | 1013.2 |
| 20260505164621 | 46 | 230 | 3.5 | 13.0 | 0.00 | 0.00 | 0.00 | 42 | 1013.3 |
| 20260505164119 | 46 | 167 | 5.2 | 9.6 | 0.00 | 0.00 | 0.00 | 42 | 1013.3 |
| 20260505163617 | 45 | 219 | 5.2 | 8.7 | 0.00 | 0.00 | 0.00 | 45 | 1013.3 |
| 20260505163114 | 44 | 151 | 2.6 | 4.3 | 0.00 | 0.00 | 0.00 | 45 | 1013.4 |
| 20260505162612 | 45 | 215 | 1.7 | 7.8 | 0.00 | 0.00 | 0.00 | 46 | 1013.2 |
| 20260505162109 | 45 | 9 | 0.9 | 5.2 | 0.00 | 0.00 | 0.00 | 44 | 1013.1 |
| 20260505161606 | 44 | 295 | 1.7 | 7.0 | 0.00 | 0.00 | 0.00 | 45 | 1013.4 |
| 20260505161104 | 44 | 230 | 3.5 | 7.0 | 0.00 | 0.00 | 0.00 | 45 | 1013.2 |
| 20260505160601 | 45 | 247 | 5.2 | 9.6 | 0.00 | 0.00 | 0.00 | 44 | 1013.3 |
| 20260505153038 | 44 | 183 | 4.3 | 12.2 | 0.00 | 0.00 | 0.00 | 45 | 1013.3 |
| 20260505152535 | 45 | 253 | 1.7 | 5.2 | 0.00 | 0.00 | 0.00 | 45 | 1013.1 |
| 20260505152030 | 44 | 106 | 0.9 | 6.1 | 0.00 | 0.00 | 0.00 | 47 | 1013.2 |
| 20260505151525 | 44 | 179 | 3.5 | 6.1 | 0.00 | 0.00 | 0.00 | 47 | 1013.2 |
| 20260505151023 | 43 | 256 | 3.5 | 9.6 | 0.00 | 0.00 | 0.00 | 47 | 1013.0 |
| 20260505150519 | 44 | 233 | 8.7 | 12.2 | 0.00 | 0.00 | 0.00 | 46 | 1013.0 |
| 20260505140444 | 42 | 208 | 3.5 | 6.1 | 0.00 | 0.00 | 0.00 | 48 | 1012.6 |
| 20260505124857 | 39 | 275 | 0.9 | 7.0 | 0.00 | 0.00 | 0.00 | 55 | 1012.3 |
| 20260505124355 | 40 | 219 | 2.6 | 5.2 | 0.00 | 0.00 | 0.00 | 55 | 1011.8 |
| 20260505123850 | 39 | 249 | 1.7 | 2.6 | 0.00 | 0.00 | 0.00 | 55 | 1011.8 |
| 20260505123347 | 39 | 217 | 1.7 | 5.2 | 0.00 | 0.00 | 0.00 | 57 | 1011.8 |
| 20260505122843 | 39 | 223 | 1.7 | 5.2 | 0.00 | 0.00 | 0.00 | 56 | 1011.5 |
| 20260505122341 | 39 | 210 | 5.2 | 7.0 | 0.00 | 0.00 | 0.00 | 57 | 1011.6 |
| 20260505121837 | 39 | 188 | 2.6 | 5.2 | 0.00 | 0.00 | 0.00 | 57 | 1011.6 |
| 20260505121334 | 39 | 281 | 3.5 | 4.3 | 0.00 | 0.00 | 0.00 | 58 | 1011.5 |
| 20260505120830 | 39 | 161 | 1.7 | 2.6 | 0.00 | 0.00 | 0.00 | 60 | 1011.4 |
| 20260505120327 | 39 | 197 | 0.9 | 2.6 | 0.00 | 0.00 | 0.00 | 61 | 1011.2 |
| 20260505115826 | 39 | 167 | 1.7 | 1.7 | 0.00 | 0.00 | 0.00 | 61 | 1011.3 |
| 20260505115323 | 38 | 231 | 1.7 | 4.3 | 0.00 | 0.00 | 0.00 | 62 | 1011.0 |
| 20260505114821 | 38 | 266 | 2.6 | 6.1 | 0.00 | 0.00 | 0.00 | 63 | 1011.0 |
| 20260505114317 | 37 | 194 | 2.6 | 2.6 | 0.00 | 0.00 | 0.00 | 64 | 1010.9 |
| 20260505113813 | 37 | 229 | 2.6 | 5.2 | 0.00 | 0.00 | 0.00 | 65 | 1010.7 |
| 20260505113309 | 37 | 202 | 1.7 | 2.6 | 0.00 | 0.00 | 0.00 | 65 | 1010.8 |
| 20260505112805 | 37 | 226 | 6.1 | 7.8 | 0.00 | 0.00 | 0.00 | 65 | 1010.6 |
| 20260505112305 | 37 | 229 | 1.7 | 4.3 | 0.00 | 0.00 | 0.00 | 66 | 1010.9 |
| 20260505111759 | 37 | 245 | 1.7 | 5.2 | 0.00 | 0.00 | 0.00 | 65 | 1010.5 |
| 20260505111254 | 37 | 187 | 0.9 | 2.6 | 0.00 | 0.00 | 0.00 | 65 | 1010.6 |
| 20260505110750 | 37 | 214 | 2.6 | 4.3 | 0.00 | 0.00 | 0.00 | 65 | 1010.5 |
| 20260505110248 | 37 | 242 | 1.7 | 5.2 | 0.00 | 0.00 | 0.00 | 65 | 1010.6 |
| 20260505101722 | 38 | 217 | 1.7 | 4.3 | 0.00 | 0.00 | 0.00 | 65 | 1010.5 |
| 20260505101218 | 38 | 264 | 1.7 | 6.1 | 0.00 | 0.00 | 0.00 | 66 | 1010.3 |
| 20260505100715 | 38 | 234 | 0.9 | 2.6 | 0.00 | 0.00 | 0.00 | 65 | 1010.3 |
| 20260505100212 | 38 | 248 | 2.6 | 5.2 | 0.00 | 0.00 | 0.00 | 65 | 1010.3 |
| 20260505095707 | 39 | 242 | 1.7 | 5.2 | 0.00 | 0.00 | 0.00 | 65 | 1010.1 |
| 20260505095205 | 39 | 224 | 6.1 | 7.8 | 0.00 | 0.00 | 0.00 | 65 | 1010.0 |
| 20260505094700 | 39 | 221 | 3.5 | 6.1 | 0.00 | 0.00 | 0.00 | 65 | 1010.1 |
| 20260505094157 | 39 | 308 | 2.6 | 6.1 | 0.00 | 0.00 | 0.00 | 64 | 1010.2 |
| 20260505093653 | 39 | 172 | 0.0 | 4.3 | 0.00 | 0.00 | 0.00 | 65 | 1009.9 |
| 20260505093151 | 39 | 228 | 0.9 | 2.6 | 0.00 | 0.00 | 0.00 | 65 | 1009.8 |
| 20260505092648 | 39 | 194 | 0.9 | 5.2 | 0.00 | 0.00 | 0.00 | 64 | 1009.9 |
| 20260505092147 | 39 | 247 | 1.7 | 5.2 | 0.00 | 0.00 | 0.00 | 63 | 1009.8 |
| 20260505091643 | 39 | 214 | 3.5 | 7.0 | 0.00 | 0.00 | 0.00 | 64 | 1009.9 |
| 20260505091141 | 39 | 239 | 2.6 | 5.2 | 0.00 | 0.00 | 0.00 | 64 | 1009.9 |
| 20260505090638 | 39 | 240 | 0.9 | 5.2 | 0.00 | 0.00 | 0.00 | 63 | 1010.0 |
| 20260505090137 | 39 | 199 | 0.9 | 2.6 | 0.00 | 0.00 | 0.00 | 63 | 1009.7 |
| 20260505085633 | 40 | 203 | 3.5 | 5.2 | 0.00 | 0.00 | 0.00 | 62 | 1009.7 |
| 20260505085132 | 40 | 172 | 1.7 | 7.0 | 0.00 | 0.00 | 0.00 | 62 | 1009.7 |
| 20260505084629 | 40 | 358 | 0.9 | 4.3 | 0.00 | 0.00 | 0.00 | 62 | 1009.5 |
| 20260505084128 | 40 | 256 | 0.9 | 7.8 | 0.00 | 0.00 | 0.00 | 61 | 1009.4 |
| 20260505083625 | 40 | 156 | 0.0 | 5.2 | 0.00 | 0.00 | 0.00 | 61 | 1009.2 |
| 20260505083121 | 40 | 236 | 2.6 | 4.3 | 0.00 | 0.00 | 0.00 | 60 | 1009.5 |
| 20260505082616 | 41 | 246 | 0.9 | 5.2 | 0.00 | 0.00 | 0.00 | 60 | 1009.4 |
| 20260505070827 | 42 | 215 | 1.7 | 2.6 | 0.00 | 0.00 | 0.00 | 56 | 1008.8 |
| 20260505070323 | 42 | 215 | 1.7 | 2.6 | 0.00 | 0.00 | 0.00 | 56 | 1008.8 |
| 20260505065819 | 42 | 245 | 2.6 | 6.1 | 0.00 | 0.00 | 0.00 | 55 | 1008.9 |
| 20260505065316 | 42 | 257 | 6.1 | 9.6 | 0.00 | 0.00 | 0.00 | 55 | 1008.8 |
| 20260505064813 | 42 | 224 | 2.6 | 8.7 | 0.00 | 0.00 | 0.00 | 55 | 1009.0 |
| 20260505064310 | 43 | 213 | 2.6 | 7.0 | 0.00 | 0.00 | 0.00 | 55 | 1009.0 |
| 20260505063808 | 43 | 222 | 4.3 | 8.7 | 0.00 | 0.00 | 0.00 | 55 | 1008.9 |
| 20260505063304 | 43 | 233 | 0.9 | 7.8 | 0.00 | 0.00 | 0.00 | 56 | 1009.1 |
| 20260505062800 | 43 | 199 | 2.6 | 5.2 | 0.00 | 0.00 | 0.00 | 56 | 1008.7 |
| 20260505062258 | 43 | 271 | 2.6 | 5.2 | 0.00 | 0.00 | 0.00 | 56 | 1009.0 |
| 20260505061754 | 43 | 232 | 1.7 | 7.8 | 0.00 | 0.00 | 0.00 | 54 | 1009.0 |
| 20260505061253 | 43 | 245 | 6.1 | 9.6 | 0.00 | 0.00 | 0.00 | 55 | 1009.1 |
| 20260505060750 | 43 | 216 | 1.7 | 7.0 | 0.00 | 0.00 | 0.00 | 55 | 1009.1 |
| 20260505060247 | 44 | 216 | 1.7 | 6.1 | 0.00 | 0.00 | 0.00 | 54 | 1009.1 |
| 20260505055742 | 44 | 197 | 5.2 | 7.0 | 0.00 | 0.00 | 0.00 | 54 | 1008.8 |
| 20260505055238 | 44 | 236 | 2.6 | 4.3 | 0.00 | 0.00 | 0.00 | 54 | 1009.1 |
| 20260505054736 | 44 | 238 | 2.6 | 8.7 | 0.00 | 0.00 | 0.00 | 54 | 1009.0 |
| 20260505054233 | 44 | 261 | 3.5 | 7.0 | 0.00 | 0.00 | 0.00 | 54 | 1009.0 |
| 20260505053732 | 44 | 233 | 2.6 | 5.2 | 0.00 | 0.00 | 0.00 | 54 | 1008.8 |
| 20260505053222 | 44 | 260 | 3.5 | 9.6 | 0.00 | 0.00 | 0.00 | 54 | 1008.6 |
| 20260505052719 | 44 | 173 | 0.9 | 4.3 | 0.00 | 0.00 | 0.00 | 55 | 1008.6 |
| 20260505052216 | 44 | 220 | 0.9 | 4.3 | 0.00 | 0.00 | 0.00 | 54 | 1008.8 |
| 20260505051713 | 44 | 244 | 2.6 | 4.3 | 0.00 | 0.00 | 0.00 | 54 | 1008.7 |
| 20260505051211 | 44 | 264 | 6.1 | 7.8 | 0.00 | 0.00 | 0.00 | 54 | 1008.8 |
| 20260505050709 | 45 | 255 | 2.6 | 4.3 | 0.00 | 0.00 | 0.00 | 54 | 1008.6 |
| 20260505050207 | 45 | 201 | 2.6 | 7.0 | 0.00 | 0.00 | 0.00 | 54 | 1008.4 |
| 20260505041631 | 44 | 214 | 0.0 | 0.9 | 0.00 | 0.00 | 0.00 | 56 | 1008.4 |
| 20260505041128 | 45 | 244 | 0.9 | 2.6 | 0.00 | 0.00 | 0.00 | 55 | 1008.6 |
| 20260505040625 | 45 | 193 | 0.0 | 1.7 | 0.00 | 0.00 | 0.00 | 54 | 1008.7 |
| 20260505040122 | 45 | 199 | 1.7 | 2.6 | 0.00 | 0.00 | 0.00 | 53 | 1008.4 |
| 20260505035619 | 45 | 247 | 2.6 | 4.3 | 0.00 | 0.00 | 0.00 | 52 | 1008.4 |
| 20260505035115 | 46 | 234 | 4.3 | 7.0 | 0.00 | 0.00 | 0.00 | 51 | 1008.3 |
| 20260505034612 | 46 | 221 | 2.6 | 6.1 | 0.00 | 0.00 | 0.00 | 52 | 1008.4 |
| 20260505034109 | 46 | 229 | 1.7 | 4.3 | 0.00 | 0.00 | 0.00 | 51 | 1008.2 |
| 20260505033605 | 46 | 249 | 2.6 | 5.2 | 0.00 | 0.00 | 0.00 | 51 | 1008.4 |
| 20260505033104 | 46 | 190 | 6.1 | 7.8 | 0.00 | 0.00 | 0.00 | 51 | 1008.3 |
| 20260505032601 | 46 | 260 | 1.7 | 2.6 | 0.00 | 0.00 | 0.00 | 51 | 1008.4 |
| 20260505032057 | 46 | 205 | 0.9 | 4.3 | 0.00 | 0.00 | 0.00 | 50 | 1008.4 |
| 20260505031555 | 46 | 186 | 0.9 | 5.2 | 0.00 | 0.00 | 0.00 | 49 | 1008.4 |
| 20260505031051 | 46 | 246 | 0.9 | 2.6 | 0.00 | 0.00 | 0.00 | 50 | 1008.3 |
| 20260505030548 | 46 | 212 | 0.9 | 6.1 | 0.00 | 0.00 | 0.00 | 49 | 1008.6 |
| 20260505030044 | 46 | 231 | 2.6 | 2.6 | 0.00 | 0.00 | 0.00 | 49 | 1008.4 |
| 20260505025540 | 46 | 196 | 2.6 | 6.1 | 0.00 | 0.00 | 0.00 | 49 | 1008.3 |
| 20260505025039 | 46 | 204 | 3.5 | 7.0 | 0.00 | 0.00 | 0.00 | 49 | 1008.3 |
| 20260505024536 | 46 | 221 | 3.5 | 6.1 | 0.00 | 0.00 | 0.00 | 48 | 1008.3 |
| 20260505024033 | 46 | 180 | 0.9 | 4.3 | 0.00 | 0.00 | 0.00 | 49 | 1008.1 |
| 20260505023530 | 46 | 230 | 1.7 | 4.3 | 0.00 | 0.00 | 0.00 | 48 | 1008.0 |
| 20260505023028 | 46 | 250 | 2.6 | 5.2 | 0.00 | 0.00 | 0.00 | 48 | 1007.9 |
| 20260505022525 | 46 | 202 | 2.6 | 5.2 | 0.00 | 0.00 | 0.00 | 47 | 1008.0 |
| 20260505022022 | 47 | 236 | 0.9 | 1.7 | 0.00 | 0.00 | 0.00 | 48 | 1007.7 |
| 20260505021518 | 47 | 241 | 2.6 | 5.2 | 0.00 | 0.00 | 0.00 | 47 | 1007.6 |
| 20260505021015 | 47 | 229 | 3.5 | 6.1 | 0.00 | 0.00 | 0.00 | 47 | 1007.8 |
| 20260505020515 | 47 | 264 | 1.7 | 5.2 | 0.00 | 0.00 | 0.00 | 46 | 1007.6 |
| 20260505020012 | 47 | 243 | 2.6 | 6.1 | 0.00 | 0.00 | 0.00 | 46 | 1007.6 |
| 20260505015509 | 47 | 204 | 2.6 | 9.6 | 0.00 | 0.00 | 0.00 | 46 | 1007.6 |
| 20260505015006 | 47 | 203 | 3.5 | 5.2 | 0.00 | 0.00 | 0.00 | 46 | 1007.6 |
| 20260505014503 | 47 | 259 | 0.9 | 4.3 | 0.00 | 0.00 | 0.00 | 46 | 1007.5 |
| 20260505014000 | 48 | 234 | 2.6 | 11.3 | 0.00 | 0.00 | 0.00 | 46 | 1007.5 |
| 20260505013457 | 48 | 214 | 3.5 | 9.6 | 0.00 | 0.00 | 0.00 | 46 | 1007.2 |
| 20260505012954 | 48 | 181 | 2.6 | 9.6 | 0.00 | 0.00 | 0.00 | 46 | 1007.4 |
| 20260505012452 | 48 | 246 | 4.3 | 7.0 | 0.00 | 0.00 | 0.00 | 46 | 1007.1 |
| 20260505011949 | 48 | 228 | 5.2 | 12.2 | 0.00 | 0.00 | 0.00 | 47 | 1007.1 |
| 20260505011445 | 48 | 226 | 2.6 | 7.8 | 0.00 | 0.00 | 0.00 | 47 | 1006.8 |
| 20260505010942 | 49 | 238 | 3.5 | 9.6 | 0.00 | 0.00 | 0.00 | 46 | 1006.6 |
| 20260505010438 | 49 | 256 | 8.7 | 13.0 | 0.00 | 0.00 | 0.00 | 46 | 1006.6 |
| 20260505005934 | 49 | 246 | 9.6 | 13.0 | 0.00 | 0.00 | 0.00 | 46 | 1006.6 |